Regional Weather Roundup
Issued by NWS Nashville, TN

Home | Current Version | Previous Version | Text Only | Print | Product List | Glossary On
Versions: 1 2 3 4 5 6 7 8 9 10 11 12 13 14 15 16 17 18 19 20 21 22 23 24 25 26 27
000
ASUS44 KOHX 222310
RWROHX
MIDDLE TENNESSEE HOURLY WEATHER ROUNDUP
NATIONAL WEATHER SERVICE NASHVILLE TN
500 PM CST SUN JAN 22 2017

NOTE: "FAIR" INDICATES FEW OR NO CLOUDS BELOW 12,000 FEET WITH
NO SIGNIFICANT WEATHER AND/OR OBSTRUCTIONS TO VISIBILITY.

* THESE REPORTS ARE NOT UNDER NWS QUALITY CONTROL AND MAY NOT
  REPORT WEATHER SUCH AS PRECIPITATION AND FOG.


TNZ005>011-023>034-057-059-062>066-078-080-230000
...NORTHERN MIDDLE TENNESSEE...

CITY           SKY/WX    TMP DP  RH WIND       PRES   REMARKS
CLARKSVILLE    CLOUDY    61  51  70 NE10      29.32R
CROSSVILLE     CLOUDY    57  51  80 NE8       29.31F
GALLATIN       CLOUDY    64  52  63 NE9G17    29.32S
DICKSON        CLOUDY    57  52  84 N5        29.29S
LEBANON        CLOUDY    62  51  67 N5        29.26
NASHVILLE      CLOUDY    63  50  62 NE6       29.28F
PORTLAND       CLOUDY    61  52  72 NE9       29.31F
SMYRNA         CLOUDY    62  52  69 NE7       29.28F
SPRINGFIELD    CLOUDY    61  54  77 NE13      29.30F
WEST NASHVILLE MOCLDY    59  52  77 N5        29.28S
$$
TNZ056-058-060-061-075>077-079-093>097-230000
...SOUTHERN MIDDLE TENNESSEE...

CITY           SKY/WX    TMP DP  RH WIND       PRES   REMARKS
COLUMBIA       MOCLDY    59  59 100 N3        29.25F
MCMINNVILLE    CLOUDY    61  54  77 N8        29.26F
SHELBYVILLE    CLOUDY    61  55  82 N6        29.26F
TULLAHOMA      CLOUDY    55  54  94 N8        29.25F
WINCHESTER     CLOUDY    57  55  94 N6        29.23F
$$


...KEY TO REMARKS...
VSB - VISIBILITY IN MILES
WCI - WIND CHILL INDEX
HX  - HEAT INDEX





USA.gov is the U.S. government's official web portal to all federal, state and local government web resources and services.